Retour au catalogue

HULIANWANG DIGUI-84

ActifCommunicationsPO
NORAD 65819·PAYLOAD·🇨🇳 China

Lancé Sep 27, 2025 depuis Taiyuan Satellite Launch Center

Loading…

Prochains Passages (prochaines 24 heures)

TLE

FraisSource: Space-Track

Époque: Sep 14, 2026, 07:06 UTC

1 65819U 25220C   26257.29620979  .00000038  00000-0  54195-4 0  9995
2 65819  86.4991  13.6199 0001478  85.5657 274.5646 13.24410844 46716

Suivez HULIANWANG DIGUI-84 en temps réel avec AllMySat

Download on the App Store